Home   Weather   Stanley   Past weeks

Flag for Falkland Islands Past Weather in Stanley, Falkland Islands — Yesterday and Last 2 Weeks

Now
45 °F

Passing clouds.


Feels Like: 36 °F
Forecast: 45 / 48 °F
Wind: 21 mph from Southwest

Location: Mount Pleasant Airport

Current Time: Apr 26, 2017 at 7:17:38 am

Latest Report: Apr 26, 2017 at 5:50 am


Visibility: 2 mi

Pressure: 29.21 "Hg

Humidity: 100%

Dew Point: 45 °F

Location of StanleyLocation

Past Weather in Stanley — Graph

°F

Stanley Temperature Yesterday

Maximum temperature yesterday: 52 °F (at 1:50 pm)
Minimum temperature yesterday: 46 °F (at 12:50 am)
Average temperature yesterday: 49 °F

High & Low Weather Summary for the Past Weeks

 TemperatureHumidityPressure
High54 °F (Apr 18, 7:50 pm)100% (Apr 11, 6:50 pm)30.12 "Hg (Apr 11, 6:50 pm)
Low32 °F (Apr 22, 9:50 pm)40% (Apr 20, 7:50 am)29.21 "Hg (Apr 26, 3:50 am)
Average44 °F85%29.72 "Hg
* Reported Apr 11 5:50 am — Apr 26 5:50 am, Stanley, Weather by CustomWeather, © 2017

Note: Actual official high and low records may vary slightly from our data, if they occured in-between our weather recording intervals... More about our weather records

Advertising

Stanley Weather History for the Previous 24 Hours

Scroll right to see more
 ConditionsComfort  
Time TempWeatherWind HumidityBarometerVisibility
5:50 am
Wed, Apr 26
45 °FPassing clouds.21 mph100%29.21 "Hg2 mi
4:50 am46 °FDrizzle. Mostly cloudy.16 mph100%29.21 "Hg3 mi
3:50 am45 °FLow clouds.6 mph100%29.21 "HgN/A
2:50 am45 °FRain. Partly cloudy.7 mph100%29.24 "HgN/A
1:50 am46 °FDrizzle. Low clouds.9 mph93%29.24 "Hg4 mi
12:50 am46 °FMostly cloudy.10 mph93%29.27 "HgN/A
11:50 pm
Tue, Apr 25
46 °FMostly cloudy.14 mph93%29.30 "HgN/A
10:50 pm46 °FDrizzle. Mostly cloudy.17 mph93%29.30 "Hg4 mi
9:50 pm46 °FDrizzle. Mostly cloudy.20 mph100%29.33 "Hg2 mi
8:50 pm48 °FDrizzle. Mostly cloudy.14 mph100%29.39 "Hg2 mi
7:50 pm48 °FDrizzle. Mostly cloudy.16 mph100%29.39 "Hg4 mi
6:50 pm48 °FLight rain. Low clouds.21 mph100%29.45 "HgN/A
5:50 pm50 °FRain. Low clouds.23 mph94%29.47 "HgN/A
4:50 pm50 °FDrizzle. Low clouds.22 mph94%29.53 "HgN/A
3:50 pm52 °FPartly sunny.24 mph88%29.56 "HgN/A
2:50 pm52 °FPartly sunny.25 mph88%29.59 "HgN/A
1:50 pm52 °FSunny.25 mph88%29.62 "HgN/A
12:50 pm50 °FLow clouds.22 mph94%29.65 "HgN/A
11:50 am50 °FLow clouds.24 mph94%29.65 "HgN/A
10:50 am48 °FLow clouds.22 mph100%29.68 "HgN/A
9:50 am48 °FDrizzle. Low clouds.24 mph94%29.68 "Hg6 mi
8:50 am48 °FDrizzle. Low clouds.26 mph94%29.68 "Hg2 mi
7:50 am48 °FDrizzle. Low clouds.25 mph94%29.71 "Hg3 mi
Weather by CustomWeather, © 2017

See weather overviewHow to use our weather pages